www.pogodaiklimat.ru

Погода и климат >> Архив погоды >> Россия >> Краснодарский край >> Горячий Ключ


ПОГОДА в Горячем Ключе

  • Прогноз погоды в Горячем Ключе
  • Монитор погоды в Горячем Ключе
  • Климат города

АРХИВ ПОГОДЫ в Горячем Ключе

Время (UTC), дата Ветер
(напр.,м/с)
 
Видим.   Явления Облачность Т
(С)
Тd
(С)
f
(%)
Тe
(С)
Тes
(С)
Комфортность P
(гПа)
Po
(гПа)
Тmin
(С)
Tmax
(С)
R
(мм)
R24
(мм)
S
(см)
18 12.07 СЗ 1 20 км 1/1 1000 м
[Cu med, cong]
+28.7 +16.9 49 +32 +32 душно 1008.1 1001.1
21 12.07 Ю 1 20 км ясно +26.0 +16.7 57 +30 +30 душно 1008.7 1001.6
00 13.07 З 1 20 км ясно +24.2 +17.5 66 +28 +28 душно 1008.8 1001.7
03 13.07 штиль 0 20 км 1/1 1000 м
[Cu med, cong]
+21.7 +18.3 81 +26 +27 душно 1008.9 1001.7 +21.5
06 13.07 СЗ 1 20 км ясно +28.9 +19.7 58 +35 +47 очень
душно
1008.2 1001.3
09 13.07 СВ 1 20 км 3/3 1000 м
[Cu med, cong]
+33.8 +15.4 33 +36 +51 опасность
солнечного
удара
1007.5 1000.6
12 13.07 СЗ 1 20 км 4/4 1000 м
[Cu med, cong]
+34.6 +12.1 26 +35 +44 очень
жарко
1006.2 999.3
15 13.07 С 1 20 км 6/6 1000 м
[Cu med, cong]
+34.7 +11.6 25 +34 +36 очень
жарко
1005.6 998.7 +36.0
18 13.07 штиль 0 20 км 1/0 2000 м
[Ac lent]
+27.9 +16.4 50 +31 +31 душно 1006.3 999.3
21 13.07 ЮЗ 1 20 км 3/3 1000 м
[Cu med, cong]
+25.2 +17.1 61 +29 +29 душно 1006.7 999.6
00 14.07 З 1 20 км ясно +22.5 +17.5 73 +27 +27 душно 1006.4 999.2
03 14.07 З 1 20 км 4/4 1000 м
[Cu med, cong]
+21.4 +17.7 79 +26 +26 душно 1006.2 999.0 +21.3
06 14.07 штиль 0 20 км 5/3 1000 м
[Cu med, cong Ac cast]
+28.5 +16.3 48 +32 +40 душно 1005.5 998.5
09 14.07 В 1 20 км 8/3 1000 м
[Cu med, cong Ac cast Cc]
+32.6 +14.5 34 +34 +44 очень
жарко
1004.6 997.7
12 14.07 СЗ 1 20 км 4/3 600 м
[Cb calv Ci ing]
+35.1 +11.2 23 +34 +45 очень
жарко
1002.6 995.7
15 14.07 Ю 2 20 км гроза без осадков 9/6 600 м
[Cb calv Ac cuf Ci ing]
+27.7 +15.3 47 +31 +31 душно 1003.3 996.3 +35.3
18 14.07 З 1 10 км гроза, ливневой дождь 9/8 600 м
[Cb cap Ac cuf Cs]
+21.9 +18.8 83 +27 +27 душно 1005.5 998.3
21 14.07 З 1 20 км {гроза, ливн. осадки} ясно +20.6 +18.7 89 +26 +26 душно 1005.7 998.5
00 15.07 ЮЗ 1 20 км {гроза, ливн. осадки} ясно +19.4 +17.7 90 +23 +23 комфорт 1005.3 998.1
03 15.07 З 2 20 км 9/0 2000 м
[Ac trans Cc]
+18.8 +17.2 90 +21 +21 комфорт 1004.9 997.7 +18.6 1
06 15.07 З 2 20 км 10/4 1000 м
[Cu med, cong Ac As Ci]
+22.4 +18.0 76 +27 +30 душно 1005.0 997.9
09 15.07 С 1 20 км 10/5 1000 м
[Cu med, cong Ac und]
+27.8 +18.3 56 +33 +36 очень
душно
1004.6 997.6
12 15.07 З 1 20 км в посл. час ливневой дождь {гроза} 10/6 600 м
[Cb calv Ac und]
+22.7 +20.1 85 +29 +31 очень
душно
1004.7 997.6
15 15.07 З 3 4000 м ливневой дождь, в посл. час гроза 10/10 600 м
[Cb cap]
+18.4 +17.4 94 +19 +19 1006.7 999.4 +28.3 9
18 15.07 штиль 0 20 км {гроза, ливн. осадки} 9/6 600 м
[Cb calv Ac cuf Ci ing]
+18.6 +16.8 89 +19 +19 1006.7 999.5
21 15.07 З 1 20 км 8/4 600 м
[Cb calv Ac cuf Ci ing]
+18.8 +16.1 84 +21 +21 комфорт 1006.7 999.4
00 16.07 З 2 20 км ?/? +18.1 +15.8 86 +19 +19 1006.4 999.2
03 16.07 З 1 20 км 8/0 2000 м
[Ac lent Ci]
+18.1 +15.8 86 +19 +20 1006.0 998.7 +17.5 5
06 16.07 ЮЗ 2 20 км 5/0 2000 м
[Ac lent Cc]
+24.3 +17.2 65 +28 +35 душно 1006.0 999.0
09 16.07 ЮЗ 2 20 км 5/4 1000 м
[Cu med, cong Ci fib]
+27.9 +15.1 46 +31 +41 душно 1005.3 998.3
12 16.07 ЮЗ 4 10 км гроза, ливневой дождь 9/8 600 м
[Cb cap Ac cuf]
+24.3 +17.0 64 +28 +29 душно 1006.4 999.3
15 16.07 Ю 2
{10}
20 км {гроза, ливн. осадки} 6/5 600 м
[Cb calv Ac lent Ci fib]
+24.8 +16.1 58 +28 +29 жарко 1006.0 998.9 +27.9 0.0
18 16.07 ЮЗ 4 10 км гроза, ливневой дождь 9/8 600 м
[Cb cap Ac cuf]
+22.7 +16.6 68 +27 +27 душно 1006.4 999.3
21 16.07 ЮЗ 3
{12}
10 км гроза, ливневой дождь 10/10 600 м
[Cb cap]
+20.0 +16.5 80 +23 +23 комфорт 1007.5 1000.3
00 17.07 З 1 20 км {гроза, ливн. осадки} 8/0
[Ci fib]
+18.4 +16.2 87 +20 +20 1006.6 999.3
03 17.07 Ю 2 20 км 9/8 600 м
[Cb calv Ac cuf]
+20.8 +15.3 71 +25 +25 комфорт 1006.2 999.0 +18.4 2
06 17.07 ЮЗ 3-11
{11}
10 км слабый ливневой дождь {гроза} 9/9 600 м
[Cb cap]
+21.3 +16.6 75 +25 +26 комфорт 1007.1 999.9
09 17.07 штиль 0
{11}
4000 м гроза, ливневой дождь 10/10 600 м
[Cb cap]
+20.1 +17.9 87 +23 +23 комфорт 1007.3 1000.1
12 17.07 ЮЗ 4-11
{11}
20 км {гроза, ливн. осадки} 3/3 600 м
[Cb calv]
+24.8 +16.3 59 +28 +34 жарко 1007.2 1000.1
15 17.07 ЮЗ 4
{11}
20 км 8/4 600 м
[Cb calv Ac cuf Ci ing]
+23.9 +16.5 63 +27 +28 жарко 1006.4 999.3 +26.0 10
18 17.07 ЮЗ 2
{10}
20 км 6/6 600 м
[Cb calv]
+22.9 +16.2 66 +27 +27 душно 1007.3 1000.2
21 17.07 ЮЗ 4
{11}
20 км 6/6 600 м
[Cb calv]
+22.7 +16.3 67 +27 +27 душно 1006.5 999.4
00 18.07 З 1
{10}
10 км слабый ливневой дождь, в посл. час гроза 10/10 600 м
[Cb cap]
+20.8 +17.4 81 +26 +26 душно 1005.9 998.8
03 18.07 З 1 10 км гроза, ливневой дождь 8/8 600 м
[Cb cap]
+20.2 +18.0 87 +25 +25 комфорт 1006.1 998.9 +19.5 2
06 18.07 СЗ 1 20 км {гроза, ливн. осадки} 8/3 600 м
[Cb calv Ac cuf Ci fib]
+22.7 +19.0 80 +29 +34 очень
душно
1005.7 998.6
09 18.07 Ю 3 20 км 4/3 600 м
[Cb calv Ac cuf]
+28.5 +14.1 41 +30 +40 жарко 1004.6 997.6
12 18.07 З 2 20 км 3/1 1000 м
[Cu hum Ci sp]
+29.7 +14.6 40 +32 +43 душно 1004.0 997.0
15 18.07 З 1 20 км 1/0
[Ci fib]
+29.1 +13.1 37 +30 +33 жарко 1003.8 996.9 +29.7 0.5
18 18.07 З 1 20 км 1/0
[Ac trans]
+21.7 +17.4 77 +26 +26 душно 1004.4 997.3
21 18.07 штиль 0 20 км 8/0 2000 м
[Ac trans]
+19.2 +16.7 85 +21 +21 комфорт 1003.8 996.6
00 19.07 З 1 10 км слабый ливневой дождь 10/6 600 м
[Cb cap Ac und]
+19.3 +16.9 86 +22 +22 комфорт 1004.4 997.2
03 19.07 З 1 20 км {ливн. осадки} 9/4 600 м
[Cb calv Ac cuf Cc]
+19.2 +16.6 85 +22 +22 комфорт 1004.4 997.2 +18.8 0.1
06 19.07 СЗ 1 20 км {ливн. осадки} 9/5 600 м
[Cb calv Ac cuf Ci ing]
+24.4 +16.7 62 +28 +31 душно 1003.7 996.7
09 19.07 Ю 2 4000 м слабый ливневой дождь 10/10 600 м
[Cb cap]
+21.4 +16.8 75 +25 +25 комфорт 1004.5 997.3
12 19.07 Ю 2 20 км {ливн. осадки} 9/6 600 м
[Cb calv Ac cuf Ci ing]
+24.3 +14.6 55 +27 +30 жарко 1004.8 997.7

 

Местоположение метеостанции Горячий Ключ (Краснодарский край, Россия): широта 44.63 долгота 39.10 высота над уровнем моря 62 м.

В архиве по умолчанию представлена погода в Горячем Ключе за последнюю неделю. Архивные данные за месяц целиком и за предыдущие месяцы, начиная с января 2011 года, Вы можете получить, выбрав интересующий диапазон дат из раскрывающегося списка и нажав кнопку "Ввод!".


*Определитесь, кто Вы:
робот инопланетянин человек

Внимание! Время в таблицах - всемирное. Для получения местного времени необходимо прибавить поправку, которая в Горячем Ключе равна 3 ч.

Смотрите также архив погоды в соседних городах и на ближайших метеорологических станциях:

Погода в Горном (Краснодарский край, Россия) (41 км)
Погода в Джубге (Краснодарский край, Россия) (45 км)
Погода в Краснодаре (Краснодарский край, Россия) (47 км)
Погода в Туапсе (Краснодарский край, Россия) (59 км)
Погода в Белореченске (Краснодарский край, Россия) (65 км)
Погода в Магри (Краснодарский край, Россия) (68 км)
Погода в Майкопе (Адыгея, Россия) (78 км)
Погода в Геленджике (Краснодарский край, Россия) (81 км)
Погода в Шунтуке (Адыгея, Россия) (83 км)
Погода в Усть-Лабинске (Краснодарский край, Россия) (83 км)

Пояснения к столбцам:

Ветер - указаны скорость ветра в м/с - средняя за 10 мин, порывы в срок и между сроками (в фигурных скобках) и направление, откуда дует ветер: С - северный, СВ - северо-восточный, В - восточный, ЮВ - юго-восточный, Ю - южный, ЮЗ - юго-западный, З - западный, СЗ - северо-западный.
Видимость - горизонтальная дальность видимости в метрах или километрах. При видимости от 1 до 10 км при отсутствии осадков обычно наблюдается дымка, при ухудшении видимости до 1 км и менее - туман. В сухую погоду видимость может ухудшаться дымом, пылью или мглою.
Явления - указаны атмосферные явления, наблюдавшиеся в срок или в последний час перед сроком; фигурными скобками обозначены явления, наблюдавшиеся между сроками (за 1-3 часа до срока); квадратными скобками обозначены град или гололедные отложения с указанием их диаметра в мм.
Облачность - указаны через наклонную черту общая и нижняя облачность в баллах и высота нижней границы облаков в метрах; квадратными скобками обозначены формы облаков: Ci - перистые, Cs - перисто-слоистые, Cc - перисто-кучевые, Ac - высококучевые, As - высокослоистые, Sc - слоисто-кучевые, Ns - слоисто-дождевые, Cu - кучевые, Cb - кучево-дождевые. Подробнее классификацию облаков см. в Атласе облаков (PDF).
T - Температура воздуха - температура, измеренная на высоте 2 м над землей.
Td - Температура точки росы - температура, при понижении до которой содержащийся в воздухе водяной пар достигнет насыщения.
f - Относительная влажность воздуха - влажноcть воздуха, измеренная на высоте 2 м над землей.
Te - Эффективная температура - температура, которую ощущает одетый по сезону человек в тени. Характеристика душности погоды. При расчете учитывается влияние влажности воздуха и скорости ветра на теплоощущения человека.
Tes - Эффективная температура на солнце - температура, которую ощущает человек, с поправкой на солнечный нагрев. Характеристика знойности погоды. Зависит от высоты солнца над горизонтом, облачности и скорости ветра. Ночью, в пасмурную погоду, а также при ветре 12 м/с и более поправка равна нулю.
P - Атмосферное давление - приведенное к уровню моря атмосферное давление.
Po - Атмосферное давление - измеренное на уровне метеостанции атмосферное давление.
Tmin - Минимальная температура - минимум температуры воздуха на высоте 2 м над землей.
Tmax - Максимальная температура - максимум температуры воздуха на высоте 2 м над землей.
R - Количество осадков - Количество выпавших осадков за период времени, мм. При наведении курсора мыши на число - период времени, за который выпало указанное количество осадков.
R24 - Количество осадков - Количество выпавших осадков за 24 часа, мм.
S - Снежный покров - Высота снежного покрова, см. При наведении курсора мыши на число - состояние снежного покрова и степень покрытия местности в баллах.